START_TIME,STEP,MOV.,P11,t_acc.,P23,t_acc.,P27,t_acc.,A4,t_acc.
1979-07-15 12:00:23.320 ,0,0,0.,4.8,0.,4.8,0.,4.8,0.,4.8
1979-07-15 12:00:28.120 ,0,0,3.,4.8,0.,4.8,0.,4.8,0.,4.8
1979-07-15 12:00:32.920 ,0,0,4.,4.8,0.,4.8,0.,4.8,0.,4.8
1979-07-15 12:00:37.720 ,0,0,0.,4.8,0.,4.8,0.,4.8,0.,4.8
1979-07-15 12:00:42.520 ,0,0,0.,4.8,0.,4.8,0.,4.8,0.,4.8
1979-07-15 12:00:47.320 ,1,0,1.,4.8,0.,4.8,0.,4.8,0.,4.8
1979-07-15 12:00:52.120 ,1,0,2.,4.8,0.,4.8,0.,4.8,0.,4.8
1979-07-15 12:00:56.920 ,1,0,3.,4.8,0.,4.8,0.,4.8,0.,4.8
1979-07-15 12:01:01.720 ,1,0,3.,4.8,0.,4.8,0.,4.8,0.,4.8
1979-07-15 12:01:06.520 ,1,0,4.,4.8,0.,4.8,0.,4.8,3.,4.8
1979-07-15 12:01:11.320 ,1,0,6.,4.8,0.,4.8,0.,4.8,0.,4.8
1979-07-15 12:01:16.120 ,1,0,1.,4.8,0.,4.8,0.,4.8,0.,4.8
1979-07-15 12:01:20.920 ,1,0,3.,4.8,0.,4.8,0.,4.8,0.,4.8
1979-07-15 12:01:25.720 ,1,0,4.,4.8,0.,4.8,0.,4.8,0.,4.8
1979-07-15 12:01:30.520 ,1,0,4.,4.8,0.,4.8,0.,4.8,1.,4.8
1979-07-15 12:01:35.320 ,2,0,2.,4.8,0.,4.8,0.,4.8,0.,4.8
1979-07-15 12:01:40.120 ,2,0,4.,4.8,0.,4.8,0.,4.8,0.,4.8
1979-07-15 12:01:44.920 ,2,0,3.,4.8,0.,4.8,0.,4.8,1.,4.8
1979-07-15 12:01:49.720 ,2,0,1.,4.8,0.,4.8,0.,4.8,0.,4.8
1979-07-15 12:01:54.520 ,2,0,0.,4.8,0.,4.8,0.,4.8,0.,4.8
1979-07-15 12:01:59.320 ,2,0,7.,4.8,0.,4.8,0.,4.8,0.,4.8
1979-07-15 12:02:04.120 ,2,0,2.,4.8,0.,4.8,0.,4.8,0.,4.8
1979-07-15 12:02:08.920 ,2,0,3.,4.8,0.,4.8,0.,4.8,1.,4.8
1979-07-15 12:02:13.720 ,2,0,4.,4.8,0.,4.8,0.,4.8,0.,4.8
1979-07-15 12:02:18.520 ,2,0,3.,4.8,0.,4.8,0.,4.8,0.,4.8
1979-07-15 12:02:23.320 ,3,0,6.,4.8,0.,4.8,0.,4.8,1.,4.8
1979-07-15 12:02:28.120 ,3,0,1.,4.8,0.,4.8,0.,4.8,0.,4.8
1979-07-15 12:02:32.920 ,3,0,7.,4.8,0.,4.8,0.,4.8,0.,4.8
1979-07-15 12:02:37.720 ,3,0,4.,4.8,0.,4.8,0.,4.8,0.,4.8
1979-07-15 12:02:42.520 ,3,0,2.,4.8,0.,4.8,0.,4.8,0.,4.8
1979-07-15 12:02:47.320 ,3,0,3.,4.8,0.,4.8,0.,4.8,0.,4.8
1979-07-15 12:02:52.120 ,3,0,4.,4.8,0.,4.8,0.,4.8,0.,4.8
1979-07-15 12:02:56.920 ,3,0,2.,4.8,0.,4.8,0.,4.8,0.,4.8
1979-07-15 12:03:01.720 ,3,0,2.,4.8,0.,4.8,0.,4.8,0.,4.8
1979-07-15 12:03:06.520 ,3,0,3.,4.8,0.,4.8,0.,4.8,0.,4.8
1979-07-15 12:03:11.320 ,4,0,4.,4.8,0.,4.8,0.,4.8,0.,4.8
1979-07-15 12:03:16.120 ,4,0,3.,4.8,0.,4.8,0.,4.8,0.,4.8
1979-07-15 12:03:20.920 ,4,0,2.,4.8,0.,4.8,0.,4.8,0.,4.8
1979-07-15 12:03:25.720 ,4,0,1.,4.8,0.,4.8,0.,4.8,0.,4.8
1979-07-15 12:03:30.520 ,4,0,2.,4.8,0.,4.8,0.,4.8,0.,4.8
1979-07-15 12:03:35.320 ,4,0,5.,4.8,0.,4.8,0.,4.8,0.,4.8
1979-07-15 12:03:40.120 ,4,0,3.,4.8,0.,4.8,0.,4.8,0.,4.8
1979-07-15 12:03:44.920 ,4,0,2.,4.8,0.,4.8,0.,4.8,0.,4.8
1979-07-15 12:03:49.720 ,4,0,2.,4.8,0.,4.8,0.,4.8,0.,4.8
1979-07-15 12:03:54.520 ,4,0,0.,4.8,0.,4.8,0.,4.8,0.,4.8
1979-07-15 12:03:59.320 ,5,0,1.,4.8,0.,4.8,0.,4.8,0.,4.8
1979-07-15 12:04:04.120 ,5,0,2.,4.8,0.,4.8,0.,4.8,0.,4.8
1979-07-15 12:04:08.920 ,5,0,3.,4.8,0.,4.8,0.,4.8,0.,4.8
1979-07-15 12:04:13.720 ,5,0,2.,4.8,0.,4.8,0.,4.8,0.,4.8
1979-07-15 12:04:18.520 ,5,0,2.,4.8,0.,4.8,0.,4.8,0.,4.8
1979-07-15 12:04:23.320 ,5,0,1.,4.8,0.,4.8,0.,4.8,0.,4.8
1979-07-15 12:04:28.120 ,5,0,2.,4.8,0.,4.8,0.,4.8,1.,4.8
1979-07-15 12:04:32.920 ,5,0,4.,4.8,0.,4.8,0.,4.8,0.,4.8
1979-07-15 12:04:37.720 ,5,0,2.,4.8,0.,4.8,0.,4.8,0.,4.8
1979-07-15 12:04:42.520 ,5,0,3.,4.8,0.,4.8,0.,4.8,0.,4.8
1979-07-15 12:04:47.320 ,6,0,2.,4.8,0.,4.8,0.,4.8,0.,4.8
1979-07-15 12:04:52.120 ,6,0,2.,4.8,0.,4.8,0.,4.8,0.,4.8
1979-07-15 12:04:56.920 ,6,0,1.,4.8,0.,4.8,0.,4.8,0.,4.8
1979-07-15 12:05:01.720 ,6,0,3.,4.8,0.,4.8,0.,4.8,0.,4.8
1979-07-15 12:05:06.520 ,6,0,6.,4.8,0.,4.8,0.,4.8,2.,4.8
1979-07-15 12:05:11.320 ,6,0,2.,4.8,0.,4.8,0.,4.8,0.,4.8
1979-07-15 12:05:16.120 ,6,0,1.,4.8,0.,4.8,0.,4.8,0.,4.8
1979-07-15 12:05:20.920 ,6,0,4.,4.8,0.,4.8,0.,4.8,1.,4.8
1979-07-15 12:05:25.720 ,6,0,1.,4.8,0.,4.8,0.,4.8,1.,4.8
1979-07-15 12:05:30.520 ,6,0,3.,4.8,0.,4.8,0.,4.8,0.,4.8
1979-07-15 12:05:35.320 ,7,0,3.,4.8,0.,4.8,0.,4.8,0.,4.8
1979-07-15 12:05:40.120 ,7,0,2.,4.8,0.,4.8,0.,4.8,1.,4.8
1979-07-15 12:05:44.920 ,7,0,0.,4.8,0.,4.8,0.,4.8,0.,4.8
1979-07-15 12:05:49.720 ,7,0,0.,4.8,0.,4.8,0.,4.8,0.,4.8
1979-07-15 12:05:54.520 ,7,0,0.,4.8,0.,4.8,0.,4.8,0.,4.8
1979-07-15 12:05:59.320 ,7,0,1.,4.8,0.,4.8,0.,4.8,0.,4.8
1979-07-15 12:06:04.120 ,7,0,1.,4.8,0.,4.8,0.,4.8,0.,4.8
1979-07-15 12:06:08.920 ,7,0,6.,4.8,0.,4.8,0.,4.8,0.,4.8
1979-07-15 12:06:13.720 ,7,0,2.,4.8,0.,4.8,0.,4.8,0.,4.8
1979-07-15 12:06:18.520 ,7,0,2.,4.8,0.,4.8,0.,4.8,0.,4.8
1979-07-15 12:06:23.320 ,7,0,1.,4.8,0.,4.8,0.,4.8,0.,4.8
1979-07-15 12:06:28.120 ,7,0,0.,4.8,0.,4.8,0.,4.8,0.,4.8
1979-07-15 12:06:32.920 ,7,0,2.,4.8,0.,4.8,0.,4.8,0.,4.8
1979-07-15 12:06:37.720 ,7,0,2.,4.8,0.,4.8,0.,4.8,0.,4.8
1979-07-15 12:06:42.520 ,7,0,1.,4.8,0.,4.8,0.,4.8,0.,4.8
1979-07-15 12:06:47.320 ,7,0,0.,4.8,0.,4.8,0.,4.8,0.,4.8
1979-07-15 12:06:52.120 ,7,0,1.,4.8,0.,4.8,0.,4.8,0.,4.8
1979-07-15 12:06:56.920 ,7,0,0.,4.8,0.,4.8,0.,4.8,0.,4.8
1979-07-15 12:07:01.720 ,7,0,1.,4.8,0.,4.8,0.,4.8,0.,4.8
1979-07-15 12:07:06.520 ,7,0,0.,4.8,0.,4.8,0.,4.8,0.,4.8
1979-07-15 12:07:11.320 ,6,0,1.,4.8,0.,4.8,0.,4.8,0.,4.8
1979-07-15 12:07:16.120 ,6,0,1.,4.8,0.,4.8,0.,4.8,0.,4.8
1979-07-15 12:07:20.920 ,6,0,4.,4.8,0.,4.8,0.,4.8,0.,4.8
1979-07-15 12:07:25.720 ,6,0,1.,4.8,0.,4.8,0.,4.8,0.,4.8
1979-07-15 12:07:30.520 ,6,0,1.,4.8,0.,4.8,0.,4.8,1.,4.8
1979-07-15 12:07:35.320 ,6,0,2.,4.8,0.,4.8,0.,4.8,0.,4.8
1979-07-15 12:07:40.120 ,6,0,3.,4.8,0.,4.8,0.,4.8,0.,4.8
1979-07-15 12:07:44.920 ,6,0,2.,4.8,0.,4.8,0.,4.8,0.,4.8
1979-07-15 12:07:49.720 ,6,0,4.,4.8,0.,4.8,0.,4.8,0.,4.8
1979-07-15 12:07:54.520 ,6,0,2.,4.8,0.,4.8,0.,4.8,1.,4.8
1979-07-15 12:07:35.320 ,6,0,2.,4.8,0.,4.8,0.,4.8,0.,4.8
1979-07-15 12:07:40.120 ,6,0,3.,4.8,0.,4.8,0.,4.8,0.,4.8
1979-07-15 12:07:44.920 ,6,0,2.,4.8,0.,4.8,0.,4.8,0.,4.8
1979-07-15 12:07:49.720 ,6,0,4.,4.8,0.,4.8,0.,4.8,0.,4.8
1979-07-15 12:07:54.520 ,6,0,2.,4.8,0.,4.8,0.,4.8,1.,4.8
1979-07-15 12:07:59.320 ,5,0,4.,4.8,0.,4.8,0.,4.8,0.,4.8
1979-07-15 12:08:04.120 ,5,0,7.,4.8,0.,4.8,0.,4.8,0.,4.8
1979-07-15 12:08:08.920 ,5,0,2.,4.8,0.,4.8,0.,4.8,0.,4.8
1979-07-15 12:08:13.720 ,5,0,1.,4.8,0.,4.8,0.,4.8,0.,4.8
1979-07-15 12:08:18.520 ,5,0,3.,4.8,0.,4.8,0.,4.8,0.,4.8
1979-07-15 12:08:23.320 ,5,0,1.,4.8,0.,4.8,0.,4.8,0.,4.8
1979-07-15 12:08:28.120 ,5,0,1.,4.8,0.,4.8,0.,4.8,0.,4.8
1979-07-15 12:08:32.920 ,5,0,1.,4.8,0.,4.8,0.,4.8,0.,4.8
1979-07-15 12:08:37.720 ,5,0,4.,4.8,0.,4.8,0.,4.8,0.,4.8
1979-07-15 12:08:42.520 ,5,0,4.,4.8,0.,4.8,0.,4.8,0.,4.8
1979-07-15 12:08:47.320 ,4,0,1.,4.8,0.,4.8,0.,4.8,0.,4.8
1979-07-15 12:08:52.120 ,4,0,3.,4.8,0.,4.8,0.,4.8,0.,4.8
1979-07-15 12:08:56.920 ,4,0,3.,4.8,0.,4.8,0.,4.8,0.,4.8
1979-07-15 12:09:01.720 ,4,0,1.,4.8,0.,4.8,0.,4.8,0.,4.8
1979-07-15 12:09:06.520 ,4,0,3.,4.8,0.,4.8,0.,4.8,0.,4.8
1979-07-15 12:09:11.320 ,4,0,2.,4.8,0.,4.8,0.,4.8,0.,4.8
1979-07-15 12:09:16.120 ,4,0,3.,4.8,0.,4.8,0.,4.8,0.,4.8
1979-07-15 12:09:20.920 ,4,0,4.,4.8,0.,4.8,0.,4.8,0.,4.8
1979-07-15 12:09:25.720 ,4,0,2.,4.8,0.,4.8,0.,4.8,0.,4.8
1979-07-15 12:09:30.520 ,4,0,1.,4.8,0.,4.8,0.,4.8,0.,4.8
1979-07-15 12:09:35.320 ,3,0,2.,4.8,0.,4.8,0.,4.8,0.,4.8
1979-07-15 12:09:40.120 ,3,0,4.,4.8,0.,4.8,0.,4.8,0.,4.8
1979-07-15 12:09:44.920 ,3,0,0.,4.8,0.,4.8,0.,4.8,0.,4.8
1979-07-15 12:09:49.720 ,3,0,0.,4.8,0.,4.8,0.,4.8,0.,4.8
1979-07-15 12:09:54.520 ,3,0,3.,4.8,0.,4.8,0.,4.8,0.,4.8
1979-07-15 12:09:59.320 ,3,0,3.,4.8,0.,4.8,0.,4.8,0.,4.8
1979-07-15 12:10:04.120 ,3,0,0.,4.8,0.,4.8,0.,4.8,0.,4.8
1979-07-15 12:10:08.920 ,3,0,2.,4.8,0.,4.8,0.,4.8,0.,4.8
1979-07-15 12:10:13.720 ,3,0,1.,4.8,0.,4.8,0.,4.8,1.,4.8
1979-07-15 12:10:18.520 ,3,0,1.,4.8,0.,4.8,0.,4.8,0.,4.8
1979-07-15 12:10:23.320 ,2,0,3.,4.8,0.,4.8,0.,4.8,0.,4.8
1979-07-15 12:10:28.120 ,2,0,3.,4.8,0.,4.8,0.,4.8,0.,4.8
1979-07-15 12:10:32.920 ,2,0,4.,4.8,0.,4.8,0.,4.8,0.,4.8
1979-07-15 12:10:37.720 ,2,0,4.,4.8,0.,4.8,0.,4.8,0.,4.8
1979-07-15 12:10:42.520 ,2,0,0.,4.8,0.,4.8,0.,4.8,0.,4.8
1979-07-15 12:10:47.320 ,2,0,4.,4.8,0.,4.8,0.,4.8,0.,4.8
1979-07-15 12:10:52.120 ,2,0,4.,4.8,0.,4.8,0.,4.8,0.,4.8
1979-07-15 12:10:56.920 ,2,0,4.,4.8,0.,4.8,0.,4.8,0.,4.8
1979-07-15 12:11:01.720 ,2,0,0.,4.8,0.,4.8,0.,4.8,0.,4.8
1979-07-15 12:11:06.520 ,2,0,3.,4.8,0.,4.8,0.,4.8,0.,4.8
1979-07-15 12:11:11.320 ,1,0,3.,4.8,0.,4.8,0.,4.8,0.,4.8
1979-07-15 12:11:16.120 ,1,0,2.,4.8,0.,4.8,0.,4.8,0.,4.8
1979-07-15 12:11:20.920 ,1,0,2.,4.8,0.,4.8,0.,4.8,0.,4.8
1979-07-15 12:11:25.720 ,1,0,2.,4.8,0.,4.8,0.,4.8,0.,4.8
1979-07-15 12:11:30.520 ,1,0,5.,4.8,0.,4.8,0.,4.8,0.,4.8
1979-07-15 12:11:35.320 ,1,0,2.,4.8,0.,4.8,0.,4.8,0.,4.8
1979-07-15 12:11:40.120 ,1,0,7.,4.8,0.,4.8,0.,4.8,0.,4.8
1979-07-15 12:11:44.920 ,1,0,4.,4.8,0.,4.8,0.,4.8,0.,4.8
1979-07-15 12:11:49.720 ,1,0,2.,4.8,0.,4.8,0.,4.8,0.,4.8
1979-07-15 12:11:54.520 ,1,0,2.,4.8,0.,4.8,0.,4.8,0.,4.8
1979-07-15 12:11:59.320 ,0,0,4.,4.8,0.,4.8,0.,4.8,0.,4.8
1979-07-15 12:12:04.120 ,0,0,3.,4.8,0.,4.8,0.,4.8,0.,4.8
1979-07-15 12:12:08.920 ,0,0,3.,4.8,0.,4.8,0.,4.8,0.,4.8
1979-07-15 12:12:13.720 ,0,0,0.,4.8,0.,4.8,0.,4.8,0.,4.8
1979-07-15 12:12:18.520 ,0,0,3.,4.8,0.,4.8,0.,4.8,0.,4.8
1979-07-15 12:12:23.320 ,0,0,2.,4.8,0.,4.8,0.,4.8,0.,4.8
1979-07-15 12:12:28.120 ,0,0,3.,4.8,0.,4.8,0.,4.8,0.,4.8
1979-07-15 12:12:32.920 ,0,0,2.,4.8,0.,4.8,0.,4.8,0.,4.8
1979-07-15 12:12:37.720 ,0,0,2.,4.8,0.,4.8,0.,4.8,0.,4.8
1979-07-15 12:12:42.520 ,0,0,1.,4.8,0.,4.8,0.,4.8,0.,4.8
1979-07-15 12:12:47.320 ,0,0,2.,4.8,0.,4.8,0.,4.8,0.,4.8
1979-07-15 12:12:52.120 ,0,0,4.,4.8,0.,4.8,0.,4.8,1.,4.8
1979-07-15 12:12:56.920 ,0,0,0.,4.8,0.,4.8,0.,4.8,0.,4.8
1979-07-15 12:13:01.720 ,0,0,1.,4.8,0.,4.8,0.,4.8,0.,4.8
1979-07-15 12:13:06.520 ,0,0,2.,4.8,0.,4.8,0.,4.8,0.,4.8
1979-07-15 12:13:11.320 ,0,0,1.,4.8,0.,4.8,0.,4.8,0.,4.8
1979-07-15 12:13:16.120 ,0,0,2.,4.8,0.,4.8,0.,4.8,0.,4.8
1979-07-15 12:13:20.920 ,0,0,3.,4.8,0.,4.8,0.,4.8,0.,4.8
1979-07-15 12:13:25.720 ,0,0,1.,4.8,0.,4.8,0.,4.8,0.,4.8
1979-07-15 12:13:30.520 ,0,0,3.,4.8,0.,4.8,0.,4.8,0.,4.8
1979-07-15 12:13:35.320 ,1,0,1.,4.8,0.,4.8,0.,4.8,0.,4.8
1979-07-15 12:13:40.120 ,1,0,1.,4.8,0.,4.8,0.,4.8,0.,4.8
1979-07-15 12:13:44.920 ,1,0,2.,4.8,0.,4.8,0.,4.8,0.,4.8
1979-07-15 12:13:49.720 ,1,0,3.,4.8,0.,4.8,0.,4.8,0.,4.8
1979-07-15 12:13:54.520 ,1,0,1.,4.8,0.,4.8,0.,4.8,0.,4.8
1979-07-15 12:13:59.320 ,1,0,2.,4.8,0.,4.8,0.,4.8,0.,4.8
1979-07-15 12:14:04.120 ,1,0,0.,4.8,0.,4.8,0.,4.8,1.,4.8
1979-07-15 12:14:08.920 ,1,0,5.,4.8,0.,4.8,0.,4.8,0.,4.8
1979-07-15 12:14:13.720 ,1,0,4.,4.8,0.,4.8,0.,4.8,0.,4.8
1979-07-15 12:14:18.520 ,1,0,5.,4.8,0.,4.8,0.,4.8,0.,4.8
1979-07-15 12:14:23.320 ,2,0,3.,4.8,0.,4.8,0.,4.8,0.,4.8
1979-07-15 12:14:28.120 ,2,0,3.,4.8,0.,4.8,0.,4.8,0.,4.8
1979-07-15 12:14:32.920 ,2,0,4.,4.8,0.,4.8,0.,4.8,0.,4.8
1979-07-15 12:14:37.720 ,2,0,2.,4.8,0.,4.8,0.,4.8,0.,4.8
1979-07-15 12:14:42.520 ,2,0,1.,4.8,0.,4.8,0.,4.8,0.,4.8
1979-07-15 12:14:47.320 ,2,0,3.,4.8,0.,4.8,0.,4.8,1.,4.8
1979-07-15 12:14:52.120 ,2,0,2.,4.8,0.,4.8,0.,4.8,0.,4.8
1979-07-15 12:14:56.920 ,2,0,1.,4.8,0.,4.8,0.,4.8,0.,4.8
1979-07-15 12:15:01.720 ,2,0,5.,4.8,0.,4.8,0.,4.8,0.,4.8
1979-07-15 12:15:06.520 ,2,0,0.,4.8,0.,4.8,0.,4.8,0.,4.8
1979-07-15 12:15:11.320 ,3,0,5.,4.8,0.,4.8,0.,4.8,1.,4.8
1979-07-15 12:15:16.120 ,3,0,3.,4.8,0.,4.8,0.,4.8,0.,4.8
1979-07-15 12:15:20.920 ,3,0,1.,4.8,0.,4.8,0.,4.8,0.,4.8
1979-07-15 12:15:25.720 ,3,0,2.,4.8,0.,4.8,0.,4.8,0.,4.8
1979-07-15 12:15:30.520 ,3,0,3.,4.8,0.,4.8,0.,4.8,0.,4.8
1979-07-15 12:15:35.320 ,3,0,5.,4.8,0.,4.8,0.,4.8,0.,4.8
1979-07-15 12:15:40.120 ,3,0,1.,4.8,0.,4.8,0.,4.8,0.,4.8
1979-07-15 12:15:44.920 ,3,0,2.,4.8,0.,4.8,0.,4.8,0.,4.8
1979-07-15 12:15:49.720 ,3,0,2.,4.8,0.,4.8,0.,4.8,0.,4.8
1979-07-15 12:15:54.520 ,3,0,2.,4.8,0.,4.8,0.,4.8,0.,4.8
1979-07-15 12:15:59.320 ,4,0,3.,4.8,0.,4.8,0.,4.8,0.,4.8
1979-07-15 12:16:04.120 ,4,0,5.,4.8,0.,4.8,0.,4.8,0.,4.8
1979-07-15 12:16:08.920 ,4,0,1.,4.8,0.,4.8,0.,4.8,0.,4.8
1979-07-15 12:16:13.720 ,4,0,2.,4.8,0.,4.8,0.,4.8,0.,4.8
1979-07-15 12:16:18.520 ,4,0,4.,4.8,0.,4.8,0.,4.8,0.,4.8
1979-07-15 12:16:23.320 ,4,0,1.,4.8,0.,4.8,0.,4.8,0.,4.8
1979-07-15 12:16:28.120 ,4,0,5.,4.8,0.,4.8,0.,4.8,0.,4.8
1979-07-15 12:16:32.920 ,4,0,0.,4.8,0.,4.8,0.,4.8,0.,4.8
1979-07-15 12:16:37.720 ,4,0,0.,4.8,0.,4.8,0.,4.8,0.,4.8
1979-07-15 12:16:42.520 ,4,0,2.,4.8,0.,4.8,0.,4.8,0.,4.8
1979-07-15 12:16:47.320 ,5,0,5.,4.8,0.,4.8,0.,4.8,0.,4.8
1979-07-15 12:16:52.120 ,5,0,1.,4.8,0.,4.8,0.,4.8,0.,4.8
1979-07-15 12:16:56.920 ,5,0,2.,4.8,0.,4.8,0.,4.8,0.,4.8
1979-07-15 12:17:01.720 ,5,0,0.,4.8,0.,4.8,0.,4.8,2.,4.8
1979-07-15 12:17:06.520 ,5,0,1.,4.8,0.,4.8,0.,4.8,0.,4.8
1979-07-15 12:17:11.320 ,5,0,3.,4.8,0.,4.8,0.,4.8,0.,4.8
1979-07-15 12:17:16.120 ,5,0,5.,4.8,0.,4.8,0.,4.8,0.,4.8
1979-07-15 12:17:20.920 ,5,0,2.,4.8,0.,4.8,0.,4.8,0.,4.8
1979-07-15 12:17:25.720 ,5,0,9.,4.8,0.,4.8,0.,4.8,0.,4.8
1979-07-15 12:17:30.520 ,5,0,1.,4.8,0.,4.8,0.,4.8,1.,4.8
1979-07-15 12:17:35.320 ,6,0,1.,4.8,0.,4.8,0.,4.8,0.,4.8
1979-07-15 12:17:40.120 ,6,0,1.,4.8,0.,4.8,0.,4.8,0.,4.8
1979-07-15 12:17:44.920 ,6,0,3.,4.8,0.,4.8,0.,4.8,0.,4.8
1979-07-15 12:17:49.720 ,6,0,4.,4.8,0.,4.8,0.,4.8,1.,4.8
1979-07-15 12:17:54.520 ,6,0,2.,4.8,0.,4.8,0.,4.8,0.,4.8
1979-07-15 12:17:59.320 ,6,0,2.,4.8,0.,4.8,0.,4.8,1.,4.8
1979-07-15 12:18:04.120 ,6,0,5.,4.8,0.,4.8,0.,4.8,0.,4.8
1979-07-15 12:18:08.920 ,6,0,1.,4.8,0.,4.8,0.,4.8,0.,4.8
1979-07-15 12:18:13.720 ,6,0,1.,4.8,0.,4.8,0.,4.8,0.,4.8
1979-07-15 12:18:18.520 ,6,0,3.,4.8,0.,4.8,0.,4.8,0.,4.8
1979-07-15 12:18:23.320 ,7,0,3.,4.8,0.,4.8,0.,4.8,0.,4.8
1979-07-15 12:18:28.120 ,7,0,0.,4.8,0.,4.8,0.,4.8,2.,4.8
1979-07-15 12:18:32.920 ,7,0,2.,4.8,0.,4.8,0.,4.8,0.,4.8
1979-07-15 12:18:37.720 ,7,0,0.,4.8,0.,4.8,0.,4.8,0.,4.8
1979-07-15 12:18:42.520 ,7,0,4.,4.8,0.,4.8,0.,4.8,0.,4.8
1979-07-15 12:18:47.320 ,7,0,2.,4.8,0.,4.8,0.,4.8,0.,4.8
1979-07-15 12:18:52.120 ,7,0,2.,4.8,0.,4.8,0.,4.8,0.,4.8
1979-07-15 12:18:56.920 ,7,0,2.,4.8,0.,4.8,0.,4.8,0.,4.8
1979-07-15 12:19:01.720 ,7,0,1.,4.8,0.,4.8,0.,4.8,0.,4.8
1979-07-15 12:19:06.520 ,7,0,2.,4.8,0.,4.8,0.,4.8,0.,4.8
1979-07-15 12:19:11.320 ,3,1,1.,4.8,0.,4.8,0.,4.8,0.,4.8
1979-07-15 12:19:16.120 ,3,1,3.,4.8,0.,4.8,0.,4.8,0.,4.8
1979-07-15 12:19:20.920 ,3,1,2.,4.8,0.,4.8,0.,4.8,0.,4.8
1979-07-15 12:19:25.720 ,3,1,2.,4.8,0.,4.8,0.,4.8,0.,4.8
1979-07-15 12:19:30.520 ,3,1,1.,4.8,0.,4.8,0.,4.8,1.,4.8
1979-07-15 12:19:35.320 ,0,1,2.,4.8,0.,4.8,0.,4.8,0.,4.8
1979-07-15 12:19:40.120 ,0,1,5.,4.8,0.,4.8,0.,4.8,0.,4.8
1979-07-15 12:19:44.920 ,0,1,3.,4.8,0.,4.8,0.,4.8,0.,4.8
1979-07-15 12:19:49.720 ,0,1,0.,4.8,0.,4.8,0.,4.8,0.,4.8
1979-07-15 12:19:54.520 ,0,1,4.,4.8,0.,4.8,0.,4.8,0.,4.8
1979-07-15 12:19:59.320 ,4,1,1.,4.8,0.,4.8,0.,4.8,0.,4.8
1979-07-15 12:20:04.120 ,4,1,4.,4.8,0.,4.8,0.,4.8,1.,4.8
1979-07-15 12:20:08.920 ,4,1,1.,4.8,0.,4.8,0.,4.8,0.,4.8
1979-07-15 12:20:13.720 ,4,1,3.,4.8,0.,4.8,0.,4.8,0.,4.8
1979-07-15 12:20:18.520 ,4,1,1.,4.8,0.,4.8,0.,4.8,0.,4.8
1979-07-15 12:20:23.320 ,7,1,0.,4.8,0.,4.8,0.,4.8,0.,4.8
1979-07-15 12:20:28.120 ,7,1,1.,4.8,0.,4.8,0.,4.8,0.,4.8
1979-07-15 12:20:32.920 ,7,1,4.,4.8,0.,4.8,0.,4.8,0.,4.8
1979-07-15 12:20:37.720 ,7,1,4.,4.8,0.,4.8,0.,4.8,0.,4.8
1979-07-15 12:20:42.520 ,7,1,1.,4.8,0.,4.8,0.,4.8,0.,4.8
1979-07-15 12:20:47.320 ,3,1,0.,4.8,0.,4.8,0.,4.8,0.,4.8
1979-07-15 12:20:52.120 ,3,1,2.,4.8,0.,4.8,0.,4.8,0.,4.8
1979-07-15 12:20:56.920 ,3,1,4.,4.8,0.,4.8,0.,4.8,0.,4.8
1979-07-15 12:21:01.720 ,3,1,2.,4.8,0.,4.8,0.,4.8,0.,4.8
1979-07-15 12:21:06.520 ,3,1,5.,4.8,0.,4.8,0.,4.8,0.,4.8
1979-07-15 12:21:11.320 ,0,1,2.,4.8,0.,4.8,0.,4.8,0.,4.8
1979-07-15 12:21:16.120 ,0,1,5.,4.8,0.,4.8,0.,4.8,0.,4.8
1979-07-15 12:21:20.920 ,0,1,6.,4.8,0.,4.8,0.,4.8,0.,4.8
1979-07-15 12:21:25.720 ,0,1,5.,4.8,0.,4.8,0.,4.8,0.,4.8
1979-07-15 12:21:30.520 ,0,1,2.,4.8,0.,4.8,0.,4.8,0.,4.8
1979-07-15 12:21:35.320 ,4,1,1.,4.8,0.,4.8,0.,4.8,0.,4.8
1979-07-15 12:21:40.120 ,4,1,1.,4.8,0.,4.8,0.,4.8,0.,4.8
1979-07-15 12:21:44.920 ,4,1,2.,4.8,0.,4.8,0.,4.8,0.,4.8
1979-07-15 12:21:49.720 ,4,1,1.,4.8,0.,4.8,0.,4.8,0.,4.8
1979-07-15 12:21:54.520 ,4,1,2.,4.8,0.,4.8,0.,4.8,0.,4.8
1979-07-15 12:21:59.320 ,7,1,7.,4.8,0.,4.8,0.,4.8,0.,4.8
1979-07-15 12:22:04.120 ,7,1,3.,4.8,0.,4.8,0.,4.8,0.,4.8
1979-07-15 12:22:08.920 ,7,1,2.,4.8,0.,4.8,0.,4.8,1.,4.8
1979-07-15 12:22:13.720 ,7,1,3.,4.8,0.,4.8,0.,4.8,0.,4.8
1979-07-15 12:22:18.520 ,7,1,5.,4.8,0.,4.8,0.,4.8,0.,4.8
1979-07-15 12:22:23.320 ,0,0,3.,4.8,0.,4.8,0.,4.8,0.,4.8
1979-07-15 12:22:28.120 ,0,0,5.,4.8,0.,4.8,0.,4.8,0.,4.8
1979-07-15 12:22:32.920 ,0,0,3.,4.8,0.,4.8,0.,4.8,0.,4.8
1979-07-15 12:22:37.720 ,0,0,2.,4.8,0.,4.8,0.,4.8,0.,4.8
1979-07-15 12:22:42.520 ,0,0,1.,4.8,0.,4.8,0.,4.8,0.,4.8
1979-07-15 12:22:47.320 ,0,1,4.,4.8,0.,4.8,0.,4.8,0.,4.8
1979-07-15 12:22:52.120 ,0,1,3.,4.8,0.,4.8,0.,4.8,1.,4.8
1979-07-15 12:22:56.920 ,0,1,4.,4.8,0.,4.8,0.,4.8,0.,4.8
1979-07-15 12:23:01.720 ,0,1,1.,4.8,0.,4.8,0.,4.8,0.,4.8
1979-07-15 12:23:06.520 ,0,1,6.,4.8,0.,4.8,0.,4.8,0.,4.8
1979-07-15 12:23:11.320 ,4,1,1.,4.8,0.,4.8,0.,4.8,0.,4.8
1979-07-15 12:23:16.120 ,4,1,3.,4.8,0.,4.8,0.,4.8,0.,4.8
1979-07-15 12:23:20.920 ,4,1,1.,4.8,0.,4.8,0.,4.8,0.,4.8
1979-07-15 12:23:25.720 ,4,1,2.,4.8,0.,4.8,0.,4.8,0.,4.8
1979-07-15 12:23:30.520 ,4,1,5.,4.8,0.,4.8,0.,4.8,0.,4.8
1979-07-15 12:23:35.320 ,7,1,2.,4.8,0.,4.8,0.,4.8,0.,4.8
1979-07-15 12:23:40.120 ,7,1,1.,4.8,0.,4.8,0.,4.8,0.,4.8
1979-07-15 12:23:44.920 ,7,1,1.,4.8,0.,4.8,0.,4.8,0.,4.8
1979-07-15 12:23:49.720 ,7,1,4.,4.8,0.,4.8,0.,4.8,0.,4.8
1979-07-15 12:23:54.520 ,7,1,4.,4.8,0.,4.8,0.,4.8,0.,4.8
1979-07-15 12:23:59.320 ,3,1,1.,4.8,0.,4.8,0.,4.8,0.,4.8
1979-07-15 12:24:04.120 ,3,1,1.,4.8,0.,4.8,0.,4.8,0.,4.8
1979-07-15 12:24:08.920 ,3,1,3.,4.8,0.,4.8,0.,4.8,0.,4.8
1979-07-15 12:24:13.720 ,3,1,1.,4.8,0.,4.8,0.,4.8,0.,4.8
1979-07-15 12:24:18.520 ,3,1,3.,4.8,0.,4.8,0.,4.8,1.,4.8
1979-07-15 12:24:23.320 ,0,1,3.,4.8,0.,4.8,0.,4.8,0.,4.8
1979-07-15 12:24:28.120 ,0,1,4.,4.8,0.,4.8,0.,4.8,0.,4.8
1979-07-15 12:24:32.920 ,0,1,3.,4.8,0.,4.8,0.,4.8,0.,4.8
1979-07-15 12:24:37.720 ,0,1,6.,4.8,0.,4.8,0.,4.8,0.,4.8
1979-07-15 12:24:42.520 ,0,1,3.,4.8,0.,4.8,0.,4.8,1.,4.8
1979-07-15 12:24:47.320 ,4,1,3.,4.8,0.,4.8,0.,4.8,0.,4.8
1979-07-15 12:24:52.120 ,4,1,5.,4.8,0.,4.8,0.,4.8,0.,4.8
1979-07-15 12:24:56.920 ,4,1,3.,4.8,0.,4.8,0.,4.8,0.,4.8
1979-07-15 12:25:01.720 ,4,1,1.,4.8,0.,4.8,0.,4.8,0.,4.8
1979-07-15 12:25:06.520 ,4,1,4.,4.8,0.,4.8,0.,4.8,0.,4.8
1979-07-15 12:25:11.320 ,7,1,1.,4.8,0.,4.8,0.,4.8,0.,4.8
1979-07-15 12:25:16.120 ,7,1,0.,4.8,0.,4.8,0.,4.8,0.,4.8
1979-07-15 12:25:20.920 ,7,1,2.,4.8,0.,4.8,0.,4.8,0.,4.8
1979-07-15 12:25:25.720 ,7,1,2.,4.8,0.,4.8,0.,4.8,0.,4.8
1979-07-15 12:25:30.520 ,7,1,0.,4.8,0.,4.8,0.,4.8,0.,4.8
1979-07-15 12:25:35.320 ,3,1,3.,4.8,0.,4.8,0.,4.8,1.,4.8
1979-07-15 12:25:40.120 ,3,1,2.,4.8,0.,4.8,0.,4.8,0.,4.8
1979-07-15 12:25:44.920 ,3,1,4.,4.8,0.,4.8,0.,4.8,1.,4.8
1979-07-15 12:25:49.720 ,3,1,1.,4.8,0.,4.8,0.,4.8,0.,4.8
1979-07-15 12:25:54.520 ,3,1,0.,4.8,0.,4.8,0.,4.8,0.,4.8
1979-07-15 12:25:59.320 ,0,1,3.,4.8,0.,4.8,0.,4.8,0.,4.8
1979-07-15 12:26:04.120 ,0,1,1.,4.8,0.,4.8,0.,4.8,0.,4.8
1979-07-15 12:26:08.920 ,0,1,1.,4.8,0.,4.8,0.,4.8,0.,4.8
1979-07-15 12:26:13.720 ,0,1,3.,4.8,0.,4.8,0.,4.8,0.,4.8
1979-07-15 12:26:18.520 ,0,1,5.,4.8,0.,4.8,0.,4.8,0.,4.8
1979-07-15 12:26:23.320 ,4,1,5.,4.8,0.,4.8,0.,4.8,0.,4.8
1979-07-15 12:26:28.120 ,4,1,1.,4.8,0.,4.8,0.,4.8,0.,4.8
1979-07-15 12:26:32.920 ,4,1,3.,4.8,0.,4.8,0.,4.8,0.,4.8
1979-07-15 12:26:37.720 ,4,1,2.,4.8,0.,4.8,0.,4.8,0.,4.8
1979-07-15 12:26:42.520 ,4,1,2.,4.8,0.,4.8,0.,4.8,1.,4.8
1979-07-15 12:26:47.320 ,7,1,2.,4.8,0.,4.8,0.,4.8,0.,4.8
1979-07-15 12:26:52.120 ,7,1,6.,4.8,0.,4.8,0.,4.8,0.,4.8
1979-07-15 12:26:56.920 ,7,1,0.,4.8,0.,4.8,0.,4.8,1.,4.8
1979-07-15 12:27:01.720 ,7,1,0.,4.8,0.,4.8,0.,4.8,0.,4.8
1979-07-15 12:27:06.520 ,7,1,3.,4.8,0.,4.8,0.,4.8,0.,4.8
1979-07-15 12:27:11.320 ,3,1,5.,4.8,0.,4.8,0.,4.8,0.,4.8
1979-07-15 12:27:16.120 ,3,1,1.,4.8,0.,4.8,0.,4.8,0.,4.8
1979-07-15 12:27:20.920 ,3,1,3.,4.8,0.,4.8,0.,4.8,0.,4.8
1979-07-15 12:27:25.720 ,3,1,2.,4.8,0.,4.8,0.,4.8,0.,4.8
1979-07-15 12:27:30.520 ,3,1,3.,4.8,0.,4.8,0.,4.8,0.,4.8
1979-07-15 12:27:35.320 ,0,1,3.,4.8,0.,4.8,0.,4.8,0.,4.8
1979-07-15 12:27:40.120 ,0,1,2.,4.8,0.,4.8,0.,4.8,0.,4.8
1979-07-15 12:27:44.920 ,0,1,2.,4.8,0.,4.8,0.,4.8,1.,4.8
1979-07-15 12:27:49.720 ,0,1,2.,4.8,0.,4.8,0.,4.8,0.,4.8
1979-07-15 12:27:54.520 ,0,1,0.,4.8,0.,4.8,0.,4.8,0.,4.8
1979-07-15 12:27:59.320 ,4,1,2.,4.8,0.,4.8,0.,4.8,0.,4.8
1979-07-15 12:28:04.120 ,4,1,1.,4.8,0.,4.8,0.,4.8,0.,4.8
1979-07-15 12:28:08.920 ,4,1,3.,4.8,0.,4.8,0.,4.8,0.,4.8
1979-07-15 12:28:13.720 ,4,1,3.,4.8,0.,4.8,0.,4.8,1.,4.8
1979-07-15 12:28:18.520 ,4,1,1.,4.8,0.,4.8,0.,4.8,0.,4.8
1979-07-15 12:28:23.320 ,7,1,1.,4.8,0.,4.8,0.,4.8,0.,4.8
1979-07-15 12:28:28.120 ,7,1,1.,4.8,0.,4.8,0.,4.8,0.,4.8
1979-07-15 12:28:32.920 ,7,1,3.,4.8,0.,4.8,0.,4.8,0.,4.8
1979-07-15 12:28:37.720 ,7,1,3.,4.8,0.,4.8,0.,4.8,0.,4.8
1979-07-15 12:28:42.520 ,7,1,1.,4.8,0.,4.8,0.,4.8,0.,4.8
1979-07-15 12:28:47.320 ,3,1,1.,4.8,0.,4.8,0.,4.8,0.,4.8
1979-07-15 12:28:52.120 ,3,1,5.,4.8,0.,4.8,0.,4.8,0.,4.8
1979-07-15 12:28:56.920 ,3,1,3.,4.8,0.,4.8,0.,4.8,0.,4.8
1979-07-15 12:29:01.720 ,3,1,1.,4.8,0.,4.8,0.,4.8,0.,4.8
1979-07-15 12:29:06.520 ,3,1,3.,4.8,0.,4.8,0.,4.8,0.,4.8
1979-07-15 12:29:11.320 ,0,1,5.,4.8,0.,4.8,0.,4.8,0.,4.8
1979-07-15 12:29:16.120 ,0,1,4.,4.8,0.,4.8,0.,4.8,1.,4.8
1979-07-15 12:29:20.920 ,0,1,1.,4.8,0.,4.8,0.,4.8,0.,4.8
1979-07-15 12:29:25.720 ,0,1,5.,4.8,0.,4.8,0.,4.8,0.,4.8
1979-07-15 12:29:30.520 ,0,1,1.,4.8,0.,4.8,0.,4.8,0.,4.8
1979-07-15 12:29:35.320 ,0,0,2.,4.8,0.,4.8,0.,4.8,0.,4.8
1979-07-15 12:29:40.120 ,0,0,4.,4.8,0.,4.8,0.,4.8,0.,4.8
1979-07-15 12:29:44.920 ,0,0,2.,4.8,0.,4.8,0.,4.8,0.,4.8
1979-07-15 12:29:49.720 ,0,0,2.,4.8,0.,4.8,0.,4.8,0.,4.8
1979-07-15 12:29:54.520 ,0,0,2.,4.8,0.,4.8,0.,4.8,0.,4.8
1979-07-15 12:29:59.320 ,0,0,2.,4.8,0.,4.8,0.,4.8,0.,4.8
1979-07-15 12:30:04.120 ,0,0,2.,4.8,0.,4.8,0.,4.8,0.,4.8
1979-07-15 12:30:08.920 ,0,0,2.,4.8,0.,4.8,0.,4.8,0.,4.8
1979-07-15 12:30:13.720 ,0,0,1.,4.8,0.,4.8,0.,4.8,0.,4.8
1979-07-15 12:30:18.520 ,0,0,0.,4.8,0.,4.8,0.,4.8,0.,4.8
1979-07-15 12:30:23.320 ,5,0,3.,4.8,0.,4.8,0.,4.8,0.,4.8
1979-07-15 12:30:28.120 ,5,0,1.,4.8,0.,4.8,0.,4.8,0.,4.8
1979-07-15 12:30:32.920 ,5,0,2.,4.8,0.,4.8,0.,4.8,0.,4.8
1979-07-15 12:30:37.720 ,5,0,4.,4.8,0.,4.8,0.,4.8,0.,4.8
1979-07-15 12:30:42.520 ,5,0,4.,4.8,0.,4.8,0.,4.8,0.,4.8
1979-07-15 12:30:47.320 ,5,0,3.,4.8,0.,4.8,0.,4.8,1.,4.8
1979-07-15 12:30:52.120 ,5,0,1.,4.8,0.,4.8,0.,4.8,0.,4.8
1979-07-15 12:30:56.920 ,5,0,5.,4.8,0.,4.8,0.,4.8,0.,4.8
1979-07-15 12:31:01.720 ,5,0,1.,4.8,0.,4.8,0.,4.8,0.,4.8
1979-07-15 12:31:06.520 ,5,0,0.,4.8,0.,4.8,0.,4.8,0.,4.8
1979-07-15 12:31:11.320 ,4,0,4.,4.8,0.,4.8,0.,4.8,0.,4.8
1979-07-15 12:31:16.120 ,4,0,3.,4.8,0.,4.8,0.,4.8,0.,4.8
1979-07-15 12:31:20.920 ,4,0,1.,4.8,0.,4.8,0.,4.8,0.,4.8
1979-07-15 12:31:25.720 ,4,0,3.,4.8,0.,4.8,0.,4.8,0.,4.8
1979-07-15 12:31:30.520 ,4,0,3.,4.8,0.,4.8,0.,4.8,0.,4.8
1979-07-15 12:31:35.320 ,4,0,1.,4.8,0.,4.8,0.,4.8,0.,4.8
1979-07-15 12:31:40.120 ,4,0,3.,4.8,0.,4.8,0.,4.8,0.,4.8
1979-07-15 12:31:44.920 ,4,0,2.,4.8,0.,4.8,0.,4.8,0.,4.8
1979-07-15 12:31:49.720 ,4,0,4.,4.8,0.,4.8,0.,4.8,0.,4.8
1979-07-15 12:31:54.520 ,4,0,1.,4.8,0.,4.8,0.,4.8,0.,4.8
1979-07-15 12:31:59.320 ,3,0,3.,4.8,0.,4.8,0.,4.8,0.,4.8
1979-07-15 12:32:04.120 ,3,0,2.,4.8,0.,4.8,0.,4.8,0.,4.8
1979-07-15 12:32:08.920 ,3,0,2.,4.8,0.,4.8,0.,4.8,0.,4.8
1979-07-15 12:32:13.720 ,3,0,2.,4.8,0.,4.8,0.,4.8,0.,4.8
1979-07-15 12:32:18.520 ,3,0,6.,4.8,0.,4.8,0.,4.8,0.,4.8
1979-07-15 12:32:23.320 ,3,0,4.,4.8,0.,4.8,0.,4.8,0.,4.8
1979-07-15 12:32:28.120 ,3,0,1.,4.8,0.,4.8,0.,4.8,0.,4.8
1979-07-15 12:32:32.920 ,3,0,0.,4.8,0.,4.8,0.,4.8,0.,4.8
1979-07-15 12:32:37.720 ,3,0,0.,4.8,0.,4.8,0.,4.8,0.,4.8
1979-07-15 12:32:42.520 ,3,0,1.,4.8,0.,4.8,0.,4.8,0.,4.8
1979-07-15 12:32:47.320 ,2,0,1.,4.8,0.,4.8,0.,4.8,0.,4.8
1979-07-15 12:32:52.120 ,2,0,2.,4.8,0.,4.8,0.,4.8,1.,4.8